Jackpot

Texas Poker Multi Jackpot System

Kini Telah hadir Jackpot SUPER ROYAL FLUSH

Kini Telah hadir Jackpot 2000 (khusus table VIP keatas).

Ikutilah global jackpot yang tersedia di system kami, dengan system jackpot terbaru dan pertama di indonesia, anda dapat membeli jackpot dengan harga 100 rupiah saja dan menangkan hadiahnya hingga puluhan juta rupiah.

Jackpot bukanlah suatu keharusan untuk dibeli, namun kami memberikan suatu fitur tambahan untuk member tercinta dari www.babepoker.net.

Terdapat tiga pilihan harga jackpot yang bisa anda beli yaitu :100,500,1000 dan 2000(khusus table VIP Keatas) rupiah.

Hadiah dari Multi jackpot system www.babepoker.net

  1. full house x 10 harga jackpot yang anda beli.
      (contoh:anda membeli 1000 maka:1000 X10 = 10.000)
  2. four of kind x 250 harga jackpot yang anda beli
      (contoh:anda membeli 1000 maka:1000 X250 = 250.000)
  3. Straight flush x 1200
      (contoh:anda membeli 1000 maka:1000 X1200 = 1.200.000)
  4. Royal flush x 10000 harga jackpot yang anda beli
      (contoh:anda membeli 1000 maka:1000 X10000 = 10.000.000)
  5. SUPER ROYAL FLUSH x 30000 harga jackpot yang anda beli
      (contoh:anda membeli 1000 maka:1000 X30000 = 30.000.000)

Kondisi kartu

  1. full house adalah kondisi kartu dimana kartu anda dan kartu tengah dengan total 7 kartu bisa mendapatkan nilai 5 kartu dengan kombinasi 1 tris(three of kind) dan 1 pair, contoh 3 kartu 10 dan 2 kartu 5
  2. Four of kind adalah kondisi kartu dimana kartu anda dan kartu tengah dengan total 7 kartu bisa mendapatkan nilai 5 kartu dengan kombinasi 4 kartu yang sama jumlah dan 1 kartu apapun juga contoh anda mendapatkan 4 buah kartu angka 3 dan 1 kartu apapun.
  3. Staright flush adalah kondisi kartu dimana kartu anda dan kartu tengah dengan total 7 kartu bisa mendapatkan nilai 5 kartu dengan kombinasi seri / staright dengan kembang yang sama contoh : urutan kartu dari angka 5, 6, 7, 8 , 9 10 dengan kembang yg sama misalnya as hati
  4. Royal flush adalah kondisi kartu dimana kartu anda dan kartu tengah dengan total 7 kartu bisa mendapatkan nilai 5 kartu dengan kombinasi seri / staright dengan kembang yang sama tetapi kartu tersebut haruslah dimulai dari 10. contoh 10, Queen, Jack, King dan aces dengan kembang yang sama
  5. Super Royal flush adalah kondisi kartu dimana Kedua kartu anda digabung dengan 3 kartu pertama meja haruslah royal flush. contoh kartu anda 10,Queen kembang sama dan 3 kartu pertama meja adalah Jack, King dan aces dengan kembang yang sama

Demikian adalah penjelasan dari Multi Jackpot www.babepoker.net terima kasih dan selamat bermain salam hoki dari kami

Texas Poker Jackpot Winner

TOP SUPER ROYAL FLUSH
No.TanggalNamaPriceWin
123/04 19:45WEL02Super Royal flush15,000,000
223/04 19:43TELONLANG2Super Royal flush6,000,000
323/04 18:12RENNNNNOSuper Royal flush6,000,000
423/04 17:57RRNANSuper Royal flush15,000,000
523/04 16:21CIMEN062Super Royal flush3,000,000
TOP ROYAL FLUSH
No.TanggalNamaPriceWin
123/04 19:34TRISPA1Royal flush2,000,000
223/04 19:23E8335808Royal flush2,000,000
323/04 19:21JUANDA989Royal flush1,000,000
423/04 19:14WASYURoyal flush20,000,000
523/04 19:10N9ULGNV6CDRoyal flush2,000,000
TOP STRAIGHT FLUSH
No.TanggalNamaPriceWin
123/04 19:57LEONEL86Straight Flush240,000
223/04 19:56SPONGI99Straight Flush1,200,000
323/04 19:53BON19DOLStraight Flush240,000
423/04 19:53HOKI191Straight Flush240,000
523/04 19:52EFRY757575Straight Flush600,000
LATEST JACKPOT
No.TanggalNamaPriceWin
123/04 20:00MARATUA1Full House10,000
223/04 19:59KUCINGSAJAFull House2,000
323/04 19:59BOWO8003Full House2,000
423/04 19:59H4R1MAU131Full House2,000
523/04 19:59FFF8331FFull House5,000
623/04 19:59BAROH45Full House2,000
723/04 19:59EDTANS1LFull House5,000
823/04 19:59ZAIN55Full House1,000
923/04 19:59ARJUNA001Full House10,000
1023/04 19:59PANCAT88Full House5,000
1123/04 19:59PLGREJOKIFull House10,000
1223/04 19:59DUALOLOFull House2,000
1323/04 19:59ISAP__NAHFull House2,000
1423/04 19:59UINK1199Full House5,000
1523/04 19:59AURELIUSFull House1,000
1623/04 19:59MILO_82Full House5,000
1723/04 19:59AIRIKAOOFull House2,000
1823/04 19:59ERICH72Full House2,000
1923/04 19:59HOKIPAIRRFull House2,000
2023/04 19:59AQEILA56Full House2,000
2123/04 19:59TRETES_77Full House5,000
2223/04 19:59RANDIKASFull House2,000
2323/04 19:59AZIZ7788Full House1,000
2423/04 19:59K1M0CHIFull House2,000
2523/04 19:59HOKI2510Full House10,000
2623/04 19:59HRMNYHGW6IFull House10,000
2723/04 19:59S3NT4_99Full House2,000
2823/04 19:59TABLLO55Full House2,000
2923/04 19:59DESYAR16Full House5,000
3023/04 19:59IT7LBP879RFull House2,000
3123/04 19:59B077682EFull House5,000
3223/04 19:59B4R4N4K99Full House2,000
3323/04 19:59GL4D13SFull House1,000
3423/04 19:59ASIK1Full House20,000
3523/04 19:59DOT_116Full House5,000
3623/04 19:59MU93N555Full House5,000
3723/04 19:59KARDI007Full House1,000
3823/04 19:59MARICAN123Full House2,000
3923/04 19:59BING54LFull House5,000
4023/04 19:59ABDUL200Full House2,000
4123/04 19:59KENTO0OTFull House2,000
4223/04 19:59TEMPUR444Full House1,000
4323/04 19:59HOKIPOLOSFull House10,000
4423/04 19:59E2C13B7BFull House2,000
4523/04 19:59FXUJGQ53AGFull House5,000
4623/04 19:59DWBTN20146Full House10,000
4723/04 19:59J2FHOJG2EHFull House5,000
4823/04 19:59ALBADAR23Full House2,000
4923/04 19:59YO9YCT1RX3Full House5,000
5023/04 19:59SGSV3FYBLTFull House10,000

Domino Multi Jackpot System

Ikutilah global jackpot yang tersedia di system kami, dengan system jackpot terbaru dan pertama di indonesia, anda dapat membeli jackpot dengan harga 100 rupiah saja dan menangkan hadiahnya hingga puluhan juta rupiah.

Jackpot bukanlah suatu keharusan untuk dibeli, namun kami memberikan suatu fitur tambahan untuk member tercinta dari www.babepoker.net.

Terdapat tiga pilihan harga jackpot yang bisa anda beli yaitu :100,500 dan 1000 rupiah.

Hadiah dari Multi jackpot system www.babepoker.net

  1. Murni Kecil x 50 harga jackpot yang anda beli.
      (contoh:anda membeli 1000 maka:1000 X 50 = 50.000)
  2. Murni Besar x 50 harga jackpot yang anda beli
      (contoh:anda membeli 1000 maka:1000 X 50 = 50.000)
  3. BALAK x 100 harga jackpot yang anda beli
      (contoh:anda membeli 1000 maka:1000 X 100 = 100.000)
  4. ENAM DEWA x 6666 harga jackpot yang anda beli
      (contoh:anda membeli 1000 maka:1000 X 6666 = 6.666.000)

Demikian adalah penjelasan dari Multi Jackpot www.babepoker.net terima kasih dan selamat bermain salam hoki dari kami

Domino Jackpot Winner

TOP ENAM DEWA
No.TanggalNamaPriceWin
123/04 19:26UDUZ22murni enam6,666,000
223/04 18:47ONK66murni enam3,333,000
323/04 14:15WAWONII123murni enam6,666,000
423/04 13:56KRIWOELmurni enam6,666,000
523/04 13:24JIMIN123murni enam6,666,000
TOP BALAK
No.TanggalNamaPriceWin
123/04 19:59EDG62XFES6balak100,000
223/04 19:55KAWIR13balak10,000
323/04 19:53BALENO2002balak100,000
423/04 19:53TOLORGESEKbalak100,000
523/04 19:50BAU25balak10,000
LATEST JACKPOT
No.TanggalNamaPriceWin
123/04 19:59EDG62XFES6balak100,000
223/04 19:59N1GU4murni besar50,000
323/04 19:58CABEE2Xmurni besar50,000
423/04 19:58MON_TROW99murni kecil25,000
523/04 19:58CEME7788murni kecil50,000
623/04 19:57ANWARDIKA8murni besar50,000
723/04 19:57LASAROmurni besar5,000
823/04 19:57INDEHlucky992,500
923/04 19:57Q0VSIAQDFYmurni kecil25,000
1023/04 19:55KAWIR13balak10,000
1123/04 19:55VIEJPmurni besar50,000
1223/04 19:55AT45555murni besar5,000
1323/04 19:55BALUYEIMmurni kecil50,000
1423/04 19:54DANISIMOmurni kecil50,000
1523/04 19:53NURIMAN991murni kecil5,000
1623/04 19:53BALENO2002balak100,000
1723/04 19:53NAURA1011murni besar50,000
1823/04 19:53TOLORGESEKbalak100,000
1923/04 19:53MESSILEO12murni kecil50,000
2023/04 19:53AMRII02murni besar50,000
2123/04 19:52LEKRUNmurni kecil50,000
2223/04 19:52EBOD44murni kecil25,000
2323/04 19:51ABOE0610murni besar50,000
2423/04 19:51PAI99murni besar50,000
2523/04 19:51TONI998murni kecil50,000
2623/04 19:50BAU25balak10,000
2723/04 19:50G9DW4X5CIMmurni kecil25,000
2823/04 19:50BABIKUEmurni kecil50,000
2923/04 19:50SUHARI33murni besar50,000
3023/04 19:49RYANESTAmurni besar25,000
3123/04 19:49RAWU6666balak100,000
3223/04 19:49SUKATI07murni besar25,000
3323/04 19:48DN4DKOMANGmurni kecil50,000
3423/04 19:48C59F8C0Fmurni kecil50,000
3523/04 19:47SUHARI33murni besar50,000
3623/04 19:47KREWOL86murni kecil50,000
3723/04 19:47RAWU6666murni besar50,000
3823/04 19:46KKK_35murni kecil50,000
3923/04 19:45CEME7788lucky9950,000
4023/04 19:45KWN1990murni kecil25,000
4123/04 19:45WM505murni besar25,000
4223/04 19:44RIOSHEVAmurni kecil25,000
4323/04 19:44Y9MVRGMAMCmurni kecil50,000
4423/04 19:44GSFEYUX33Tlucky992,500
4523/04 19:43D3WA33murni besar5,000
4623/04 19:42SHIEZTmurni besar50,000
4723/04 19:42NAKLAN99murni besar25,000
4823/04 19:41ASYRAF001murni kecil5,000
4923/04 19:40KOKONLANA8murni besar5,000
5023/04 19:40MAYZADAmurni kecil50,000

Ceme Multi Jackpot System

Jackpot dilihat dari gabungan kartu pemain dengan kartu bandar. Bandar harus membeli jackpot sebanyak jumlah player yang sedang duduk. Sebagai contoh bila terdapat 3 pemain duduk bermain, dan bandar memutuskan untuk membeli jackpot Rp 1.000, maka pada periode tersebut bandar akan membeli jackpot sebanyak 3xRp1.000 = Rp3.000.

Jackpot bukanlah suatu keharusan untuk dibeli, namun kami memberikan suatu fitur tambahan untuk member tercinta dari www.babepoker.net.

Terdapat tiga pilihan harga jackpot yang bisa anda beli yaitu :100,500 dan 1000 rupiah.

Hadiah dari Multi jackpot system www.babepoker.net

  1. Murni Kecil x 50 harga jackpot yang anda beli.
      (contoh:anda membeli 1000 maka:1000 X 50 = 50.000)
  2. Murni Besar x 50 harga jackpot yang anda beli
      (contoh:anda membeli 1000 maka:1000 X 50 = 50.000)
  3. BALAK x 200 harga jackpot yang anda beli
      (contoh:anda membeli 1000 maka:1000 X 200 = 200.000)
  4. ENAM DEWA x 6666 harga jackpot yang anda beli
      (contoh:anda membeli 1000 maka:1000 X 6666 = 6.666.000)

Demikian adalah penjelasan dari Multi Jackpot www.babepoker.net terima kasih dan selamat bermain salam hoki dari kami

Ceme Jackpot Winner

TOP ENAM DEWA
No.TanggalNamaPriceWin
123/04 19:58PAKSABARmurni enam6,666,000
223/04 19:58VIVIH07murni enam6,666,000
323/04 19:47IONZC88ZKZmurni enam6,666,000
423/04 19:47R9XSEW6B60murni enam6,666,000
523/04 19:46BHADRY_Nmurni enam6,666,000
TOP BALAK
No.TanggalNamaPriceWin
123/04 19:58ALLISONCLASSbalak200,000
223/04 19:57VE1993balak20,000
323/04 19:57SPRYALFLUSbalak200,000
423/04 19:57COROG237balak200,000
523/04 19:57DHIZA88balak100,000
LATEST JACKPOT
No.TanggalNamaPriceWin
123/04 20:00DOEETmurni kecil25,000
223/04 19:59BADAI007murni kecil25,000
323/04 19:59RUJITO_murni kecil50,000
423/04 19:59RICKIEAJBmurni kecil50,000
523/04 19:59BEDEPOL99murni kecil5,000
623/04 19:59KAPU9murni kecil50,000
723/04 19:59TAIPER13murni besar50,000
823/04 19:59BOSMERIS12murni besar5,000
923/04 19:59PABBIJAImurni kecil50,000
1023/04 19:59BP882818murni kecil50,000
1123/04 19:59GU192murni kecil50,000
1223/04 19:59SIIP8888murni besar25,000
1323/04 19:59BANJEEERmurni kecil25,000
1423/04 19:59SANJRImurni kecil50,000
1523/04 19:59BANJEEERmurni kecil25,000
1623/04 19:59ADBEJOmurni kecil50,000
1723/04 19:59ENDRO321murni kecil50,000
1823/04 19:59LORTUYUL13murni kecil50,000
1923/04 19:59NO125murni kecil50,000
2023/04 19:58P3L4NG1JPmurni kecil50,000
2123/04 19:58PANGERANN2murni kecil25,000
2223/04 19:58KOYAN79murni kecil50,000
2323/04 19:58MOLE123murni besar25,000
2423/04 19:58YAHON58murni kecil50,000
2523/04 19:58ARIYA10murni besar50,000
2623/04 19:58MABNImurni besar50,000
2723/04 19:58SARADHIKAmurni besar50,000
2823/04 19:58NAGACANDRAmurni kecil50,000
2923/04 19:58DJAROT766murni besar50,000
3023/04 19:58DJAROT766murni besar50,000
3123/04 19:58D52D102Fmurni kecil50,000
3223/04 19:58DEWAM2K99murni besar50,000
3323/04 19:58PAKSABARmurni enam6,666,000
3423/04 19:58VIVIH07murni enam6,666,000
3523/04 19:58UNIKEmurni kecil50,000
3623/04 19:58BUNGAU88murni kecil50,000
3723/04 19:58ALLISONCLASSbalak200,000
3823/04 19:58YANT00murni besar50,000
3923/04 19:58CILOK0Mmurni kecil25,000
4023/04 19:57KIKY1301murni kecil50,000
4123/04 19:57VE1993balak20,000
4223/04 19:57SPRYALFLUSbalak200,000
4323/04 19:57COROG237balak200,000
4423/04 19:57DHIZA88balak100,000
4523/04 19:57ABUNKDINObalak200,000
4623/04 19:57DHIZA88murni kecil25,000
4723/04 19:57VAPFWPEDTBmurni kecil50,000
4823/04 19:57PJR2017murni besar50,000
4923/04 19:57BANGRIZmurni kecil25,000
5023/04 19:57NUABIWEmurni besar25,000